Location: Aulnoy
(48.8410°N, 3.0967°E)
Time: 12:55:40
(UTC+00:00)

Resurs 1-3 - Pass Details

Date: 09 February 2023
Orbit: 627 x 629 km, 97.8° (Epoch: 22 March)

Event Time Altitude Azimuth Distance (km) Brightness Sun altitude
Exits shadow 18:45:20 31° 53° (NE) 1,111 4.4 -18.0°
Drops below altitude 10° 18:48:46 10° 4° (N) 2,021 6.1 -18.6°
Sets 18:51:08 0° 355° (N) 2,933 7.1 -19.0°
